CSN699 ZGGG-KJFK

Flight info

Callsign CSN699
Flight time N/A
Altitude 29100
Route TEPID W90 NOLON A599 KIGUN/K0932S0950 A599 ELNEX G204 MULOV V73 SUPAR B221 NINAS G327 LAMEN/N0500F310 A593 SADLI Y590 BEDAR Y591 FUE V28 DGC Y14 SAMON Z17 MRE V13 TIKYU Y13 SIRAO V13 CHE V5 BISEI DCT TBE/N0486F330 B932 ODERI/K0898F330 M152 BAMOK/N0480F330 B932 MORLY DCT NULUK DCT 61N160W/N0479F350 DCT TED J511 GKN J124 ORT DCT EMSOW DCT 63N130W 62N120W 59N110W/N0481F370 5530N10000W DCT MISAX DCT SSM DCT BUF DCT SFK DCT FQM DCT WLKES PUCKY1
Aircraft B77W/H-SDE1E2E3FGHIJ2J3J4J5M1RWXY/LB1D1

Departure

Time N/A
Airport Guangzhou Baiyun International Airport (ZGGG)

Arrival

Time 2026-04-30 19:44
Airport John F. Kennedy International Airport (KJFK)
Time Latitude Longitude Altitude Speed Heading
2026-04-30 11:28 57.61100 177.10453 32657 ft 517 kts 75°
2026-04-30 11:28 57.62122 177.16879 32662 ft 517 kts 75°
2026-04-30 11:29 57.64155 177.29743 32665 ft 517 kts 75°
2026-04-30 11:29 57.67181 177.49093 32665 ft 518 kts 76°
2026-04-30 11:30 57.70185 177.68527 32660 ft 520 kts 76°
2026-04-30 11:31 57.72175 177.81523 32648 ft 521 kts 76°
2026-04-30 11:31 57.74157 177.94564 32656 ft 521 kts 76°
2026-04-30 11:32 57.76126 178.07624 32656 ft 521 kts 76°
2026-04-30 11:32 57.78082 178.20702 32656 ft 521 kts 76°
2026-04-30 11:33 57.80976 178.40250 32653 ft 521 kts 76°
2026-04-30 11:33 57.82909 178.53440 32657 ft 521 kts 76°
2026-04-30 11:34 57.84801 178.66447 32655 ft 520 kts 76°
2026-04-30 11:34 57.86692 178.79565 32655 ft 520 kts 77°
2026-04-30 11:35 57.88570 178.92696 32658 ft 520 kts 77°
2026-04-30 11:35 57.90435 179.05839 32663 ft 520 kts 77°
2026-04-30 11:36 57.92287 179.19003 32665 ft 521 kts 77°
2026-04-30 11:36 57.94127 179.32199 32673 ft 522 kts 77°
2026-04-30 11:37 57.95954 179.45410 32694 ft 522 kts 77°
2026-04-30 11:37 57.97776 179.58690 32694 ft 524 kts 77°
2026-04-30 11:38 57.99586 179.72010 32695 ft 525 kts 77°
2026-04-30 11:38 58.01386 179.85361 32706 ft 526 kts 77°
2026-04-30 11:39 58.03177 179.98769 32699 ft 527 kts 77°
2026-04-30 11:39 58.04945 -179.87877 32682 ft 528 kts 77°
2026-04-30 11:40 58.06714 -179.74400 32585 ft 530 kts 78°
2026-04-30 11:40 58.08471 -179.60885 32499 ft 530 kts 77°
2026-04-30 11:41 58.10212 -179.47378 32482 ft 528 kts 78°
2026-04-30 11:41 58.11931 -179.33912 32499 ft 527 kts 78°
2026-04-30 11:42 58.12788 -179.27156 32684 ft 529 kts 78°
2026-04-30 11:42 58.13640 -179.20398 33017 ft 527 kts 78°
2026-04-30 11:42 58.14486 -179.13666 33415 ft 524 kts 78°
2026-04-30 11:42 58.15323 -179.06973 33822 ft 521 kts 78°
2026-04-30 11:43 58.16150 -179.00336 34218 ft 517 kts 78°
2026-04-30 11:43 58.16971 -178.93705 34428 ft 518 kts 78°
2026-04-30 11:43 58.18611 -178.80362 34478 ft 520 kts 78°
2026-04-30 11:44 58.20235 -178.67039 34481 ft 517 kts 78°
2026-04-30 11:44 58.21837 -178.53769 34484 ft 515 kts 78°
2026-04-30 11:45 58.23422 -178.40510 34488 ft 515 kts 79°
2026-04-30 11:45 58.24995 -178.27220 34491 ft 517 kts 79°
2026-04-30 11:46 58.26558 -178.13886 34492 ft 519 kts 79°
2026-04-30 11:46 58.28106 -178.00559 34492 ft 521 kts 79°
2026-04-30 11:47 58.29655 -177.87084 34491 ft 522 kts 79°
2026-04-30 11:47 58.31194 -177.73565 34487 ft 523 kts 79°
2026-04-30 11:48 58.32720 -177.60023 34488 ft 523 kts 79°
2026-04-30 11:48 58.34229 -177.46496 34491 ft 522 kts 79°
2026-04-30 11:49 58.35722 -177.32973 34497 ft 521 kts 79°
2026-04-30 11:49 58.37198 -177.19478 34521 ft 519 kts 79°
2026-04-30 11:50 58.39077 -177.06197 34521 ft 520 kts 70°
2026-04-30 11:50 58.41975 -176.93579 34531 ft 519 kts 65°
2026-04-30 11:51 58.44968 -176.81028 34525 ft 520 kts 66°
2026-04-30 11:51 58.47921 -176.68423 34529 ft 520 kts 66°
2026-04-30 11:52 58.50835 -176.55772 34515 ft 521 kts 66°
2026-04-30 11:52 58.53738 -176.43046 34501 ft 522 kts 66°
2026-04-30 11:53 58.56634 -176.30281 34496 ft 523 kts 67°
2026-04-30 11:53 58.59523 -176.17484 34498 ft 523 kts 67°
2026-04-30 11:54 58.62401 -176.04658 34497 ft 523 kts 67°
2026-04-30 11:54 58.65268 -175.91808 34497 ft 524 kts 67°
2026-04-30 11:55 58.67638 -175.81121 34497 ft 523 kts 67°
2026-04-30 11:55 58.70479 -175.68239 34488 ft 523 kts 67°
2026-04-30 11:56 58.73307 -175.55340 34487 ft 523 kts 68°
2026-04-30 11:56 58.76086 -175.42583 34488 ft 522 kts 68°
2026-04-30 11:57 58.78881 -175.29670 34488 ft 522 kts 68°
2026-04-30 11:57 58.81661 -175.16753 34486 ft 521 kts 68°
2026-04-30 11:58 58.84424 -175.03831 34487 ft 520 kts 68°
2026-04-30 11:58 58.87168 -174.90916 34487 ft 520 kts 68°
2026-04-30 11:59 58.89901 -174.77974 34488 ft 520 kts 68°
2026-04-30 11:59 58.92619 -174.65020 34488 ft 519 kts 68°
2026-04-30 12:00 58.95323 -174.52048 34487 ft 519 kts 68°
2026-04-30 12:00 58.97996 -174.39145 34489 ft 519 kts 68°
2026-04-30 12:01 59.00675 -174.26133 34489 ft 519 kts 69°
2026-04-30 12:01 59.03337 -174.13116 34487 ft 519 kts 69°
2026-04-30 12:02 59.05990 -174.00062 34489 ft 519 kts 69°
2026-04-30 12:02 59.08628 -173.86992 34487 ft 519 kts 69°
2026-04-30 12:03 59.12560 -173.67357 34486 ft 519 kts 69°
2026-04-30 12:04 59.15164 -173.54246 34487 ft 519 kts 69°
2026-04-30 12:04 59.17755 -173.41116 34487 ft 519 kts 69°
2026-04-30 12:05 59.20329 -173.27981 34488 ft 519 kts 70°
2026-04-30 12:05 59.22893 -173.14813 34488 ft 519 kts 70°
2026-04-30 12:06 59.25444 -173.01621 34485 ft 519 kts 70°
2026-04-30 12:06 59.27983 -172.88404 34488 ft 519 kts 70°
2026-04-30 12:07 59.30510 -172.75156 34488 ft 520 kts 70°
2026-04-30 12:07 59.33026 -172.61878 34489 ft 520 kts 70°
2026-04-30 12:08 59.35527 -172.48590 34487 ft 520 kts 70°
2026-04-30 12:08 59.38018 -172.35265 34488 ft 520 kts 70°
2026-04-30 12:09 59.40494 -172.21922 34488 ft 520 kts 71°
2026-04-30 12:09 59.42956 -172.08563 34486 ft 520 kts 71°
2026-04-30 12:10 59.45403 -171.95193 34488 ft 520 kts 71°
2026-04-30 12:10 59.47836 -171.81811 34485 ft 519 kts 71°
2026-04-30 12:11 59.50251 -171.68429 34489 ft 519 kts 71°
2026-04-30 12:11 59.52636 -171.55116 34533 ft 518 kts 71°
2026-04-30 12:12 59.55023 -171.41700 34532 ft 519 kts 71°
2026-04-30 12:12 59.57398 -171.28257 34546 ft 519 kts 72°
2026-04-30 12:13 59.59761 -171.14779 34543 ft 520 kts 72°
2026-04-30 12:13 59.62114 -171.01263 34545 ft 521 kts 72°
2026-04-30 12:14 59.64456 -170.87713 34534 ft 522 kts 72°
2026-04-30 12:14 59.66791 -170.74103 34534 ft 523 kts 73°
2026-04-30 12:15 59.69115 -170.60453 34544 ft 524 kts 73°
2026-04-30 12:15 59.71428 -170.46765 34545 ft 524 kts 73°
2026-04-30 12:16 59.73730 -170.33039 34567 ft 525 kts 73°
2026-04-30 12:16 59.76021 -170.19275 34585 ft 526 kts 73°
2026-04-30 12:17 59.79439 -169.98546 34546 ft 528 kts 73°
2026-04-30 12:17 59.81706 -169.84661 34545 ft 529 kts 73°
2026-04-30 12:18 59.83959 -169.70754 34556 ft 528 kts 73°
2026-04-30 12:18 59.86195 -169.56842 34560 ft 527 kts 74°
2026-04-30 12:19 59.88397 -169.43034 34586 ft 526 kts 74°
2026-04-30 12:19 59.90594 -169.29146 34586 ft 525 kts 74°
2026-04-30 12:20 59.92768 -169.15290 34577 ft 523 kts 74°
2026-04-30 12:20 59.94924 -169.01443 34585 ft 522 kts 75°
2026-04-30 12:21 59.97059 -168.87620 34587 ft 521 kts 75°
2026-04-30 12:21 59.99175 -168.73803 34595 ft 520 kts 75°
2026-04-30 12:22 60.01275 -168.59987 34598 ft 520 kts 75°
2026-04-30 12:22 60.03361 -168.46144 34603 ft 521 kts 75°
2026-04-30 12:23 60.05441 -168.32227 34615 ft 523 kts 75°
2026-04-30 12:23 60.07514 -168.18241 34623 ft 525 kts 76°
2026-04-30 12:24 60.09578 -168.04198 34622 ft 526 kts 76°
2026-04-30 12:24 60.11632 -167.90113 34619 ft 527 kts 76°
2026-04-30 12:25 60.13670 -167.76006 34617 ft 526 kts 76°
2026-04-30 12:25 60.15692 -167.61897 34619 ft 526 kts 76°
2026-04-30 12:26 60.17694 -167.47805 34617 ft 525 kts 76°
2026-04-30 12:26 60.19680 -167.33700 34622 ft 524 kts 76°
2026-04-30 12:27 60.21648 -167.19600 34630 ft 523 kts 76°
2026-04-30 12:27 60.23598 -167.05500 34626 ft 523 kts 77°
2026-04-30 12:28 60.25532 -166.91399 34629 ft 522 kts 77°
2026-04-30 12:28 60.27449 -166.77292 34630 ft 522 kts 77°
2026-04-30 12:29 60.29336 -166.63282 34627 ft 522 kts 77°
2026-04-30 12:29 60.31222 -166.49144 34632 ft 522 kts 77°
2026-04-30 12:30 60.33095 -166.34986 34627 ft 522 kts 77°
2026-04-30 12:30 60.34953 -166.20806 34630 ft 522 kts 77°
2026-04-30 12:31 60.36797 -166.06604 34636 ft 523 kts 77°
2026-04-30 12:31 60.38627 -165.92379 34639 ft 523 kts 78°
2026-04-30 12:32 60.40440 -165.78144 34637 ft 523 kts 78°
2026-04-30 12:32 60.42241 -165.63876 34644 ft 523 kts 78°
2026-04-30 12:33 60.44026 -165.49597 34649 ft 523 kts 78°
2026-04-30 12:33 60.45794 -165.35310 34645 ft 523 kts 78°
2026-04-30 12:34 60.47546 -165.21021 34648 ft 522 kts 78°
2026-04-30 12:34 60.49280 -165.06733 34645 ft 521 kts 78°
2026-04-30 12:35 60.50996 -164.92460 34648 ft 521 kts 79°
2026-04-30 12:35 60.52696 -164.78168 34648 ft 521 kts 79°
2026-04-30 12:36 60.54381 -164.63870 34647 ft 520 kts 79°
2026-04-30 12:36 60.56038 -164.49659 34644 ft 520 kts 79°
2026-04-30 12:37 60.57690 -164.35349 34648 ft 520 kts 79°
2026-04-30 12:37 60.59325 -164.21032 34646 ft 519 kts 79°
2026-04-30 12:38 60.60943 -164.06723 34647 ft 519 kts 79°
2026-04-30 12:38 60.62547 -163.92386 34643 ft 519 kts 79°
2026-04-30 12:39 60.64136 -163.78033 34635 ft 519 kts 79°
2026-04-30 12:39 60.65709 -163.63671 34639 ft 519 kts 79°
2026-04-30 12:40 60.67265 -163.49304 34643 ft 519 kts 80°
2026-04-30 12:40 60.68805 -163.34934 34651 ft 518 kts 80°
2026-04-30 12:41 60.70329 -163.20554 34657 ft 518 kts 80°
2026-04-30 12:41 60.71836 -163.06180 34666 ft 518 kts 80°
2026-04-30 12:42 60.73328 -162.91783 34667 ft 518 kts 81°
2026-04-30 12:42 60.74805 -162.77375 34668 ft 518 kts 81°
2026-04-30 12:43 60.76256 -162.63056 34677 ft 518 kts 81°
2026-04-30 12:43 60.77701 -162.48631 34677 ft 517 kts 81°
2026-04-30 12:44 60.79128 -162.34213 34675 ft 517 kts 81°
2026-04-30 12:44 60.80542 -162.19772 34683 ft 517 kts 81°
2026-04-30 12:45 60.81938 -162.05326 34685 ft 517 kts 81°
2026-04-30 12:45 60.83320 -161.90867 34685 ft 517 kts 81°
2026-04-30 12:46 60.84455 -161.78852 34684 ft 517 kts 82°
2026-04-30 12:46 60.85807 -161.64373 34686 ft 517 kts 82°
2026-04-30 12:47 60.87144 -161.49889 34698 ft 516 kts 82°
2026-04-30 12:47 60.88459 -161.35403 34698 ft 516 kts 82°
2026-04-30 12:48 60.89767 -161.20907 34707 ft 516 kts 82°
2026-04-30 12:48 60.91059 -161.06382 34702 ft 517 kts 82°
2026-04-30 12:49 60.92334 -160.91827 34706 ft 518 kts 82°
2026-04-30 12:49 60.93593 -160.77267 34717 ft 518 kts 82°
2026-04-30 12:50 60.94839 -160.62670 34715 ft 518 kts 83°
2026-04-30 12:50 60.96070 -160.48057 34718 ft 518 kts 83°
2026-04-30 12:51 60.97285 -160.33437 34720 ft 518 kts 83°
2026-04-30 12:51 60.98483 -160.18808 34735 ft 518 kts 83°
2026-04-30 12:52 60.99667 -160.04183 34742 ft 518 kts 83°
2026-04-30 12:52 61.00717 -159.89506 34740 ft 517 kts 86°
2026-04-30 12:53 61.01440 -159.74864 34752 ft 517 kts 87°
2026-04-30 12:53 61.02123 -159.60103 34748 ft 517 kts 87°
2026-04-30 12:54 61.02837 -159.45330 34750 ft 518 kts 87°
2026-04-30 12:54 61.03568 -159.30552 34761 ft 518 kts 87°
2026-04-30 12:55 61.04287 -159.15790 34773 ft 517 kts 87°
2026-04-30 12:55 61.04988 -159.01010 34783 ft 518 kts 87°
2026-04-30 12:56 61.05671 -158.86214 34788 ft 518 kts 88°
2026-04-30 12:56 61.06338 -158.71409 34797 ft 518 kts 88°
2026-04-30 12:57 61.06988 -158.56587 34797 ft 518 kts 88°
2026-04-30 12:57 61.07620 -158.41763 34805 ft 518 kts 88°
2026-04-30 12:58 61.08237 -158.26949 34827 ft 518 kts 88°
2026-04-30 12:58 61.08840 -158.12105 34822 ft 519 kts 88°
2026-04-30 12:59 61.09427 -157.97239 34834 ft 519 kts 88°
2026-04-30 12:59 61.09994 -157.82452 34839 ft 520 kts 88°
2026-04-30 13:00 61.10548 -157.67553 34847 ft 520 kts 89°
2026-04-30 13:00 61.11087 -157.52642 34854 ft 520 kts 89°
2026-04-30 13:01 61.11610 -157.37723 34857 ft 520 kts 89°
2026-04-30 13:01 61.12114 -157.22819 34861 ft 520 kts 89°
2026-04-30 13:02 61.12602 -157.07901 34861 ft 520 kts 89°
2026-04-30 13:02 61.13075 -156.92989 34868 ft 519 kts 89°
2026-04-30 13:03 61.13531 -156.78081 34870 ft 519 kts 89°
2026-04-30 13:03 61.13970 -156.63171 34867 ft 519 kts 89°
2026-04-30 13:04 61.14392 -156.48252 34862 ft 519 kts 90°
2026-04-30 13:04 61.14798 -156.33340 34858 ft 520 kts 90°
2026-04-30 13:05 61.15189 -156.18390 34847 ft 520 kts 90°
2026-04-30 13:06 61.15744 -155.95936 34847 ft 520 kts 90°
2026-04-30 13:06 61.16094 -155.80952 34837 ft 521 kts 90°
2026-04-30 13:07 61.16427 -155.65956 34834 ft 521 kts 90°
2026-04-30 13:07 61.16744 -155.50972 34832 ft 521 kts 90°
2026-04-30 13:08 61.17044 -155.35964 34838 ft 521 kts 90°
2026-04-30 13:08 61.17329 -155.20953 34839 ft 521 kts 90°
2026-04-30 13:09 61.17594 -155.06051 34817 ft 521 kts 91°
2026-04-30 13:09 61.17844 -154.91063 34846 ft 520 kts 91°
2026-04-30 13:10 61.18077 -154.76083 34840 ft 520 kts 91°
2026-04-30 13:10 61.18295 -154.61004 34842 ft 520 kts 91°
2026-04-30 13:11 61.18494 -154.46137 34847 ft 520 kts 91°
2026-04-30 13:11 61.18679 -154.31131 34861 ft 521 kts 91°
2026-04-30 13:12 61.18847 -154.16101 34896 ft 521 kts 91°
2026-04-30 13:12 61.18994 -154.01083 34930 ft 521 kts 91°
2026-04-30 13:13 61.19192 -153.78505 34928 ft 523 kts 91°
2026-04-30 13:14 61.19353 -153.55878 34918 ft 523 kts 92°
2026-04-30 13:14 61.19471 -153.33264 34956 ft 522 kts 92°
2026-04-30 13:15 61.19556 -153.10681 34954 ft 522 kts 92°
2026-04-30 13:16 61.19590 -152.95628 34958 ft 522 kts 92°
2026-04-30 13:16 61.19606 -152.80585 34959 ft 522 kts 92°
2026-04-30 13:17 61.19602 -152.58026 34989 ft 520 kts 93°
2026-04-30 13:18 61.19560 -152.35508 35008 ft 521 kts 93°
2026-04-30 13:18 61.19484 -152.13124 35005 ft 519 kts 93°
2026-04-30 13:19 61.19407 -151.98161 35030 ft 521 kts 93°
2026-04-30 13:19 61.19316 -151.83096 35031 ft 524 kts 93°
2026-04-30 13:20 61.19208 -151.67953 35042 ft 526 kts 93°
2026-04-30 13:20 61.19084 -151.52769 35049 ft 527 kts 94°
2026-04-30 13:21 61.18942 -151.37589 35054 ft 526 kts 94°
2026-04-30 13:22 61.18698 -151.14892 35053 ft 524 kts 94°
2026-04-30 13:22 61.18418 -150.92314 35055 ft 522 kts 94°
2026-04-30 13:23 61.18100 -150.69804 35062 ft 520 kts 94°
2026-04-30 13:24 61.17620 -150.39809 35068 ft 521 kts 95°
2026-04-30 13:25 61.17075 -150.09728 35064 ft 524 kts 94°
2026-04-30 13:26 61.18821 -149.87380 35070 ft 529 kts 69°
2026-04-30 13:26 61.21975 -149.73715 35070 ft 529 kts 62°
2026-04-30 13:28 61.30301 -149.39537 35077 ft 530 kts 63°
2026-04-30 13:28 61.35155 -149.18866 35073 ft 530 kts 63°
2026-04-30 13:29 61.41571 -148.91248 35068 ft 529 kts 63°
2026-04-30 13:31 61.49501 -148.56652 35070 ft 528 kts 64°
2026-04-30 13:32 61.57351 -148.21845 35055 ft 530 kts 64°
2026-04-30 13:33 61.63598 -147.93731 35040 ft 532 kts 64°
2026-04-30 13:34 61.68257 -147.72516 35037 ft 532 kts 64°
2026-04-30 13:35 61.74417 -147.44133 35022 ft 533 kts 65°
2026-04-30 13:36 61.80492 -147.15761 34982 ft 531 kts 65°
2026-04-30 13:36 61.85005 -146.94435 35004 ft 528 kts 65°
2026-04-30 13:37 61.88984 -146.75443 35005 ft 526 kts 65°
2026-04-30 13:38 61.93404 -146.54143 35008 ft 525 kts 65°
2026-04-30 13:39 61.99220 -146.25774 35034 ft 525 kts 66°
2026-04-30 13:40 62.03580 -146.04243 35099 ft 526 kts 66°
2026-04-30 13:40 62.06447 -145.89963 35078 ft 528 kts 66°
2026-04-30 13:41 62.09326 -145.75520 35085 ft 530 kts 66°
2026-04-30 13:41 62.12195 -145.61023 35071 ft 530 kts 66°
2026-04-30 13:42 62.15053 -145.46500 35072 ft 530 kts 66°
2026-04-30 13:42 62.19990 -145.25417 35071 ft 527 kts 61°
2026-04-30 13:43 62.23392 -145.11516 35072 ft 527 kts 62°
2026-04-30 13:43 62.26752 -144.97567 35074 ft 526 kts 62°
2026-04-30 13:44 62.30071 -144.83590 35072 ft 525 kts 62°
2026-04-30 13:44 62.33367 -144.69598 35062 ft 524 kts 63°
2026-04-30 13:45 62.38278 -144.48593 35063 ft 523 kts 63°
2026-04-30 13:46 62.41529 -144.34585 35056 ft 523 kts 63°
2026-04-30 13:46 62.44768 -144.20537 35047 ft 522 kts 63°
2026-04-30 13:47 62.47991 -144.06462 35037 ft 522 kts 63°
2026-04-30 13:47 62.51201 -143.92359 35035 ft 522 kts 63°
2026-04-30 13:48 62.54396 -143.78227 35024 ft 522 kts 63°
2026-04-30 13:48 62.57576 -143.64065 35020 ft 522 kts 64°
2026-04-30 13:49 62.60743 -143.49867 35016 ft 523 kts 64°
2026-04-30 13:49 62.63893 -143.35646 35009 ft 523 kts 64°
2026-04-30 13:50 62.67033 -143.21384 35012 ft 523 kts 64°
2026-04-30 13:50 62.71710 -142.99952 34998 ft 522 kts 65°
2026-04-30 13:51 62.74809 -142.85635 35002 ft 522 kts 65°
2026-04-30 13:51 62.77890 -142.71297 34996 ft 521 kts 65°
2026-04-30 13:52 62.80953 -142.56946 34981 ft 521 kts 65°
2026-04-30 13:52 62.83976 -142.42686 34979 ft 520 kts 65°
2026-04-30 13:53 62.87006 -142.28298 34983 ft 520 kts 66°
2026-04-30 13:53 62.90021 -142.13886 34981 ft 520 kts 66°
2026-04-30 13:54 62.92949 -141.99381 34980 ft 519 kts 71°
2026-04-30 13:54 62.94699 -141.84069 34999 ft 516 kts 84°
2026-04-30 13:55 62.95141 -141.68406 34989 ft 513 kts 91°
2026-04-30 13:55 62.95282 -141.52739 34985 ft 514 kts 91°
2026-04-30 13:56 62.95463 -141.37038 34979 ft 514 kts 91°
2026-04-30 13:56 62.95662 -141.21331 34985 ft 514 kts 91°
2026-04-30 13:57 62.95845 -141.05627 34982 ft 514 kts 91°
2026-04-30 13:57 62.96246 -140.90051 34985 ft 514 kts 87°
2026-04-30 13:58 62.97254 -140.66603 34994 ft 513 kts 87°
2026-04-30 13:59 62.97904 -140.50978 34986 ft 513 kts 88°
2026-04-30 13:59 62.98515 -140.35351 34974 ft 512 kts 88°
2026-04-30 14:00 62.99099 -140.19742 34987 ft 512 kts 88°
2026-04-30 14:00 62.99942 -139.96320 34972 ft 512 kts 88°
2026-04-30 14:01 63.00484 -139.80723 34976 ft 512 kts 89°
2026-04-30 14:01 63.01010 -139.65112 34973 ft 511 kts 89°
2026-04-30 14:02 63.01518 -139.49509 34964 ft 511 kts 89°
2026-04-30 14:02 63.02007 -139.33909 34965 ft 511 kts 89°
2026-04-30 14:03 63.02481 -139.18297 34961 ft 511 kts 90°
2026-04-30 14:03 63.02937 -139.02687 34945 ft 510 kts 90°
2026-04-30 14:04 63.03374 -138.87097 34936 ft 509 kts 90°
2026-04-30 14:04 63.03795 -138.71535 34932 ft 509 kts 90°
2026-04-30 14:05 63.04197 -138.55964 34925 ft 509 kts 90°
2026-04-30 14:05 63.04580 -138.40501 34932 ft 508 kts 91°
2026-04-30 14:06 63.05126 -138.17170 34932 ft 508 kts 91°
2026-04-30 14:07 63.05634 -137.93864 34928 ft 507 kts 91°
2026-04-30 14:08 63.06101 -137.70537 34914 ft 508 kts 92°
2026-04-30 14:08 63.06531 -137.47217 34915 ft 507 kts 92°
2026-04-30 14:09 63.06796 -137.31673 34921 ft 507 kts 92°
2026-04-30 14:10 63.07162 -137.08378 34909 ft 507 kts 93°
2026-04-30 14:10 63.07386 -136.92856 34918 ft 506 kts 93°
2026-04-30 14:11 63.07591 -136.77332 34917 ft 506 kts 93°
2026-04-30 14:11 63.07778 -136.61803 34905 ft 506 kts 94°
2026-04-30 14:12 63.07950 -136.46286 34917 ft 506 kts 94°
2026-04-30 14:12 63.08103 -136.30854 34907 ft 507 kts 94°
2026-04-30 14:13 63.08244 -136.15226 34912 ft 506 kts 94°
2026-04-30 14:13 63.08361 -135.99793 34920 ft 506 kts 94°
2026-04-30 14:14 63.08463 -135.84249 34924 ft 507 kts 95°
2026-04-30 14:14 63.08551 -135.68686 34910 ft 507 kts 95°
2026-04-30 14:15 63.08621 -135.53121 34917 ft 507 kts 95°
2026-04-30 14:15 63.08674 -135.37560 34906 ft 507 kts 96°
2026-04-30 14:16 63.08709 -135.22005 34904 ft 507 kts 96°
2026-04-30 14:16 63.08727 -135.06464 34907 ft 507 kts 96°
2026-04-30 14:17 63.08729 -134.90902 34906 ft 507 kts 96°
2026-04-30 14:17 63.08714 -134.75334 34911 ft 507 kts 96°
2026-04-30 14:18 63.08680 -134.59753 34908 ft 508 kts 97°
2026-04-30 14:18 63.08600 -134.36470 34896 ft 508 kts 97°
2026-04-30 14:19 63.08480 -134.13098 34903 ft 508 kts 97°
2026-04-30 14:20 63.08379 -133.97422 34895 ft 508 kts 98°
2026-04-30 14:20 63.08194 -133.74088 34888 ft 510 kts 98°
2026-04-30 14:21 63.08049 -133.58424 34904 ft 511 kts 98°
2026-04-30 14:22 63.07798 -133.34849 34890 ft 514 kts 98°
2026-04-30 14:22 63.07508 -133.11187 34905 ft 515 kts 99°
2026-04-30 14:23 63.07056 -132.79542 34903 ft 516 kts 99°
2026-04-30 14:24 63.06673 -132.55766 34889 ft 517 kts 99°
2026-04-30 14:25 63.06098 -132.24087 34909 ft 517 kts 100°
2026-04-30 14:26 63.05672 -132.02916 34890 ft 520 kts 100°
2026-04-30 14:27 63.05098 -131.76443 34903 ft 520 kts 100°
2026-04-30 14:27 63.04729 -131.60487 34893 ft 521 kts 100°
2026-04-30 14:28 63.04201 -131.39128 34896 ft 522 kts 100°
2026-04-30 14:28 63.03787 -131.23154 34916 ft 522 kts 100°
2026-04-30 14:29 63.02912 -130.91139 34897 ft 524 kts 101°
2026-04-30 14:31 63.01701 -130.51078 34906 ft 525 kts 101°
2026-04-30 14:31 63.00923 -130.27030 34911 ft 525 kts 101°
2026-04-30 14:32 63.00107 -130.02998 34920 ft 525 kts 101°
2026-04-30 14:33 62.99270 -129.87100 34923 ft 522 kts 104°
2026-04-30 14:33 62.97713 -129.63476 34922 ft 520 kts 105°
2026-04-30 14:34 62.96670 -129.47844 34927 ft 520 kts 105°
2026-04-30 14:34 62.95624 -129.32101 34927 ft 520 kts 105°
2026-04-30 14:35 62.94031 -129.08518 34920 ft 520 kts 105°
2026-04-30 14:36 62.92947 -128.92804 34912 ft 521 kts 105°
2026-04-30 14:36 62.91847 -128.77135 34919 ft 520 kts 105°
2026-04-30 14:37 62.90726 -128.61443 34931 ft 520 kts 105°
2026-04-30 14:37 62.89586 -128.45766 34942 ft 521 kts 105°
2026-04-30 14:38 62.88431 -128.30094 34945 ft 521 kts 105°
2026-04-30 14:38 62.87256 -128.14418 34940 ft 521 kts 105°
2026-04-30 14:39 62.86062 -127.98745 34940 ft 521 kts 105°
2026-04-30 14:39 62.84852 -127.83090 34941 ft 522 kts 105°
2026-04-30 14:40 62.83001 -127.59572 34928 ft 522 kts 105°
2026-04-30 14:40 62.81756 -127.44043 34937 ft 521 kts 105°
2026-04-30 14:41 62.80487 -127.28455 34925 ft 521 kts 105°
2026-04-30 14:41 62.79206 -127.12921 34942 ft 519 kts 105°
2026-04-30 14:42 62.77909 -126.97422 34955 ft 519 kts 106°
2026-04-30 14:42 62.76587 -126.81917 34943 ft 521 kts 106°
2026-04-30 14:43 62.75247 -126.66355 34955 ft 523 kts 105°
2026-04-30 14:43 62.73886 -126.50747 34956 ft 525 kts 106°
2026-04-30 14:44 62.72502 -126.35100 34964 ft 526 kts 106°
2026-04-30 14:44 62.71100 -126.19445 34957 ft 526 kts 106°
2026-04-30 14:45 62.69681 -126.03829 34959 ft 525 kts 106°
2026-04-30 14:45 62.68248 -125.88266 34949 ft 525 kts 106°
2026-04-30 14:46 62.66797 -125.72707 34958 ft 525 kts 106°
2026-04-30 14:46 62.65328 -125.57158 34964 ft 524 kts 106°
2026-04-30 14:47 62.63841 -125.41630 34946 ft 525 kts 106°
2026-04-30 14:47 62.62350 -125.26224 34959 ft 524 kts 106°
2026-04-30 14:48 62.60817 -125.10604 34950 ft 525 kts 106°
2026-04-30 14:48 62.59288 -124.95203 34951 ft 526 kts 106°
2026-04-30 14:49 62.57728 -124.79673 34964 ft 527 kts 106°
2026-04-30 14:49 62.56149 -124.64137 34964 ft 528 kts 106°
2026-04-30 14:50 62.53739 -124.40801 34963 ft 529 kts 106°
2026-04-30 14:51 62.51286 -124.17449 34969 ft 531 kts 106°
2026-04-30 14:52 62.48789 -123.94086 34971 ft 532 kts 106°
2026-04-30 14:52 62.46247 -123.70708 34963 ft 532 kts 106°
2026-04-30 14:53 62.43667 -123.47393 34965 ft 530 kts 107°
2026-04-30 14:54 62.40196 -123.16608 34973 ft 530 kts 107°
2026-04-30 14:55 62.37536 -122.93470 34976 ft 530 kts 107°
2026-04-30 14:56 62.33927 -122.62656 34970 ft 531 kts 106°
2026-04-30 14:57 62.31177 -122.39601 34971 ft 530 kts 106°
2026-04-30 14:58 62.27456 -122.08974 34976 ft 530 kts 107°
2026-04-30 14:58 62.24621 -121.86054 34970 ft 529 kts 107°
2026-04-30 15:00 62.19819 -121.47997 34962 ft 529 kts 107°
2026-04-30 15:01 62.15902 -121.17641 34964 ft 530 kts 107°
2026-04-30 15:01 62.12914 -120.94873 34964 ft 531 kts 107°
2026-04-30 15:02 62.10899 -120.79700 34966 ft 531 kts 107°
2026-04-30 15:03 62.05784 -120.41812 34963 ft 532 kts 107°
2026-04-30 15:04 62.00574 -120.04196 34965 ft 530 kts 109°
2026-04-30 15:06 61.92589 -119.69101 34964 ft 527 kts 119°
2026-04-30 15:07 61.85837 -119.41506 34984 ft 528 kts 119°
2026-04-30 15:08 61.79049 -119.13933 35001 ft 528 kts 119°
2026-04-30 15:09 61.70469 -118.79607 34996 ft 529 kts 119°
2026-04-30 15:10 61.63547 -118.52301 35017 ft 529 kts 119°
2026-04-30 15:11 61.53057 -118.11545 35025 ft 529 kts 120°
2026-04-30 15:13 61.44226 -117.77805 35039 ft 529 kts 120°
2026-04-30 15:14 61.31742 -117.30957 35028 ft 528 kts 120°
2026-04-30 15:17 61.15490 -116.71382 35061 ft 527 kts 120°
2026-04-30 15:19 61.01384 -116.20947 35058 ft 529 kts 121°
2026-04-30 17:39 49.42369 -88.37210 37105 ft 484 kts 136°
2026-04-30 17:42 49.17991 -88.01779 37109 ft 484 kts 136°
2026-04-30 17:43 49.06559 -87.85337 37084 ft 485 kts 136°
2026-04-30 17:44 48.91796 -87.64264 37075 ft 485 kts 137°
2026-04-30 17:47 48.69531 -87.32820 37071 ft 486 kts 137°
2026-04-30 17:48 48.52123 -87.08511 37066 ft 487 kts 137°
2026-04-30 17:50 48.32173 -86.80942 37063 ft 486 kts 138°
2026-04-30 17:52 48.17185 -86.60431 37065 ft 486 kts 138°
2026-04-30 17:54 47.94689 -86.29960 37059 ft 486 kts 139°
2026-04-30 17:56 47.74554 -86.03003 37046 ft 487 kts 139°
2026-04-30 17:58 47.59415 -85.82926 37048 ft 486 kts 139°
2026-04-30 18:00 47.39185 -85.56349 37047 ft 486 kts 139°
2026-04-30 18:01 47.26498 -85.39826 37046 ft 487 kts 140°
2026-04-30 18:02 47.11222 -85.20076 37033 ft 488 kts 140°
2026-04-30 18:04 46.95910 -85.00437 37027 ft 487 kts 140°
2026-04-30 18:06 46.75455 -84.74441 37028 ft 487 kts 141°
2026-04-30 18:08 46.57550 -84.51906 37028 ft 487 kts 141°
2026-04-30 18:10 46.37625 -84.25306 37023 ft 490 kts 130°
2026-04-30 18:11 46.22712 -83.98363 37019 ft 490 kts 131°
2026-04-30 18:13 46.11958 -83.79271 37017 ft 491 kts 131°
2026-04-30 18:14 46.01184 -83.60223 37016 ft 491 kts 131°
2026-04-30 18:15 45.88150 -83.37446 37020 ft 493 kts 131°
2026-04-30 18:16 45.79433 -83.22285 37013 ft 495 kts 132°
2026-04-30 18:17 45.75047 -83.14687 37009 ft 495 kts 132°
2026-04-30 18:18 45.68462 -83.03320 37008 ft 494 kts 132°
2026-04-30 18:18 45.64068 -82.95761 37010 ft 494 kts 132°
2026-04-30 18:19 45.59672 -82.88220 36998 ft 494 kts 132°
2026-04-30 18:19 45.55281 -82.80706 37000 ft 493 kts 133°
2026-04-30 18:20 45.50885 -82.73205 37000 ft 492 kts 133°
2026-04-30 18:20 45.46489 -82.65722 37000 ft 492 kts 133°
2026-04-30 18:21 45.42090 -82.58257 37000 ft 492 kts 133°
2026-04-30 18:21 45.37692 -82.50811 37000 ft 492 kts 133°
2026-04-30 18:22 45.33284 -82.43369 37001 ft 492 kts 133°
2026-04-30 18:22 45.26672 -82.32243 37001 ft 492 kts 133°
2026-04-30 18:23 45.22253 -82.24832 37000 ft 492 kts 133°
2026-04-30 18:23 45.17828 -82.17429 36997 ft 492 kts 133°
2026-04-30 18:24 45.11175 -82.06337 36990 ft 493 kts 133°
2026-04-30 18:25 45.06731 -81.98952 36991 ft 493 kts 133°
2026-04-30 18:25 45.00059 -81.87899 36991 ft 492 kts 134°
2026-04-30 18:26 44.93384 -81.76887 36991 ft 491 kts 134°
2026-04-30 18:27 44.86713 -81.65924 36991 ft 491 kts 134°
2026-04-30 18:28 44.80061 -81.55033 36990 ft 491 kts 134°
2026-04-30 18:28 44.73373 -81.44127 36990 ft 491 kts 134°
2026-04-30 18:29 44.64428 -81.29605 36991 ft 491 kts 134°
2026-04-30 18:30 44.56186 -81.16289 36991 ft 492 kts 134°
2026-04-30 18:31 44.49451 -81.05456 36991 ft 492 kts 135°
2026-04-30 18:32 44.42701 -80.94639 36984 ft 492 kts 135°
2026-04-30 18:33 44.35975 -80.83901 36985 ft 491 kts 135°
2026-04-30 18:33 44.29216 -80.73152 36977 ft 491 kts 135°
2026-04-30 18:34 44.22458 -80.62446 36969 ft 490 kts 135°
2026-04-30 18:35 44.17948 -80.55322 36971 ft 490 kts 135°
2026-04-30 18:35 44.13435 -80.48214 36968 ft 490 kts 135°
2026-04-30 18:36 44.06658 -80.37571 36962 ft 490 kts 135°
2026-04-30 18:37 43.99871 -80.26952 36953 ft 490 kts 135°
2026-04-30 18:37 43.95333 -80.19875 36955 ft 490 kts 135°
2026-04-30 18:38 43.90796 -80.12815 36954 ft 490 kts 136°
2026-04-30 18:38 43.86250 -80.05760 36953 ft 491 kts 136°
2026-04-30 18:39 43.81704 -79.98723 36951 ft 491 kts 136°
2026-04-30 18:39 43.77148 -79.91687 36944 ft 491 kts 136°
2026-04-30 18:40 43.72588 -79.84662 36943 ft 491 kts 136°
2026-04-30 18:40 43.68023 -79.77647 36944 ft 491 kts 136°
2026-04-30 18:41 43.63454 -79.70643 36945 ft 491 kts 136°
2026-04-30 18:41 43.58880 -79.63648 36944 ft 491 kts 136°
2026-04-30 18:42 43.54306 -79.56670 36945 ft 491 kts 136°
2026-04-30 18:42 43.47459 -79.46258 36946 ft 491 kts 136°
2026-04-30 18:45 43.22166 -79.08117 36954 ft 491 kts 137°
2026-04-30 18:46 43.17550 -79.01211 36955 ft 491 kts 137°
2026-04-30 18:46 43.12932 -78.94317 36945 ft 491 kts 137°
2026-04-30 18:47 43.08306 -78.87428 36945 ft 491 kts 137°
2026-04-30 18:47 43.03673 -78.80546 36943 ft 491 kts 137°
2026-04-30 18:48 42.99044 -78.73683 36945 ft 492 kts 137°
2026-04-30 18:48 42.94400 -78.66829 36946 ft 491 kts 139°
2026-04-30 18:49 42.89297 -78.60763 36946 ft 484 kts 148°
2026-04-30 18:49 42.83866 -78.55340 36949 ft 484 kts 149°
2026-04-30 18:50 42.78468 -78.49944 36944 ft 485 kts 148°
2026-04-30 18:50 42.73043 -78.44477 36948 ft 486 kts 148°
2026-04-30 18:51 42.67621 -78.39004 36946 ft 486 kts 148°
2026-04-30 18:51 42.62186 -78.33525 36936 ft 487 kts 148°
2026-04-30 18:52 42.56742 -78.28053 36936 ft 487 kts 148°
2026-04-30 18:52 42.51290 -78.22587 36918 ft 488 kts 149°
2026-04-30 18:53 42.45830 -78.17124 36928 ft 488 kts 149°
2026-04-30 18:53 42.40366 -78.11671 36933 ft 488 kts 149°
2026-04-30 18:54 42.34902 -78.06229 36920 ft 489 kts 149°
2026-04-30 18:54 42.29424 -78.00785 36931 ft 489 kts 149°
2026-04-30 18:55 42.23942 -77.95350 36920 ft 489 kts 149°
2026-04-30 18:55 42.15714 -77.87213 36908 ft 489 kts 149°
2026-04-30 18:56 42.07476 -77.79094 36908 ft 489 kts 149°
2026-04-30 18:57 41.99278 -77.71040 36921 ft 489 kts 149°
2026-04-30 18:57 41.93785 -77.65659 36911 ft 489 kts 149°
2026-04-30 18:58 41.85547 -77.57608 36903 ft 488 kts 149°
2026-04-30 18:59 41.77300 -77.49574 36885 ft 489 kts 149°
2026-04-30 19:00 41.66991 -77.37582 36894 ft 500 kts 134°
2026-04-30 19:01 41.58768 -77.22468 36891 ft 503 kts 131°
2026-04-30 19:02 41.52582 -77.11182 36874 ft 502 kts 131°
2026-04-30 19:03 41.44293 -76.96202 36865 ft 501 kts 131°
2026-04-30 19:04 41.36103 -76.81159 36843 ft 506 kts 124°
2026-04-30 19:04 41.33600 -76.72333 36860 ft 517 kts 105°
2026-04-30 19:05 41.32883 -76.62831 36861 ft 521 kts 96°
2026-04-30 19:06 41.31949 -76.43575 36854 ft 521 kts 97°
2026-04-30 19:06 41.31089 -76.29170 36855 ft 520 kts 97°
2026-04-30 19:07 41.30495 -76.19470 35927 ft 530 kts 97°
2026-04-30 19:07 41.30197 -76.14617 35111 ft 525 kts 97°
2026-04-30 19:08 41.29601 -76.04962 33318 ft 531 kts 97°
2026-04-30 19:08 41.28984 -75.95132 31474 ft 535 kts 98°
2026-04-30 19:08 41.28675 -75.90227 30854 ft 530 kts 98°
2026-04-30 19:09 41.28059 -75.80549 29610 ft 521 kts 99°
2026-04-30 19:09 41.27750 -75.75768 28988 ft 517 kts 99°
2026-04-30 19:09 41.27435 -75.71026 28365 ft 512 kts 100°
2026-04-30 19:10 41.25389 -75.62273 27150 ft 487 kts 122°
2026-04-30 19:10 41.22459 -75.54258 25937 ft 476 kts 121°
2026-04-30 19:11 41.21069 -75.50283 25350 ft 473 kts 120°
2026-04-30 19:11 41.18394 -75.42364 24173 ft 467 kts 119°
2026-04-30 19:11 41.17080 -75.38440 23583 ft 463 kts 119°
2026-04-30 19:12 41.15771 -75.34552 23080 ft 458 kts 119°
2026-04-30 19:12 41.14481 -75.30727 22885 ft 454 kts 119°
2026-04-30 19:12 41.13192 -75.26915 22831 ft 451 kts 119°
2026-04-30 19:13 41.10626 -75.19335 22832 ft 451 kts 119°
2026-04-30 19:13 41.08046 -75.11720 22187 ft 450 kts 119°
2026-04-30 19:13 41.06772 -75.07964 21791 ft 444 kts 119°
2026-04-30 19:14 41.05508 -75.04248 21357 ft 441 kts 119°
2026-04-30 19:14 41.04250 -75.00561 20890 ft 438 kts 119°
2026-04-30 19:14 41.03000 -74.96899 20425 ft 435 kts 119°
2026-04-30 19:14 41.01756 -74.93257 19948 ft 433 kts 119°
2026-04-30 19:15 41.00520 -74.89642 19503 ft 431 kts 119°
2026-04-30 19:15 40.98780 -74.82067 18857 ft 437 kts 102°
2026-04-30 19:15 40.98375 -74.78083 18829 ft 436 kts 101°
2026-04-30 19:16 40.97986 -74.74104 18825 ft 436 kts 101°
2026-04-30 19:16 40.97579 -74.70131 18815 ft 436 kts 102°
2026-04-30 19:16 40.96698 -74.62206 18829 ft 435 kts 103°
2026-04-30 19:17 40.96236 -74.58247 18831 ft 435 kts 103°
2026-04-30 19:17 40.95305 -74.50405 18804 ft 421 kts 103°
2026-04-30 19:17 40.94865 -74.46694 18805 ft 408 kts 103°
2026-04-30 19:18 40.94277 -74.41777 18816 ft 403 kts 103°
2026-04-30 19:18 40.93540 -74.35681 18827 ft 404 kts 103°
2026-04-30 19:18 40.93095 -74.32009 18830 ft 405 kts 103°
2026-04-30 19:19 40.92650 -74.28333 18836 ft 405 kts 103°
2026-04-30 19:19 40.92205 -74.24661 18828 ft 406 kts 103°
2026-04-30 19:19 40.91329 -74.17412 18809 ft 386 kts 104°
2026-04-30 19:20 40.90912 -74.13983 18791 ft 368 kts 105°
2026-04-30 19:20 40.90478 -74.11799 18805 ft 360 kts 119°
2026-04-30 19:20 40.87352 -74.07181 18734 ft 328 kts 160°
2026-04-30 19:21 40.85310 -74.05930 18435 ft 321 kts 166°
2026-04-30 19:21 40.81188 -74.03812 17699 ft 316 kts 167°
2026-04-30 19:22 40.77096 -74.01765 16966 ft 313 kts 167°
2026-04-30 19:22 40.71046 -73.98782 15848 ft 309 kts 167°
2026-04-30 19:23 40.65057 -73.95881 14738 ft 304 kts 167°
2026-04-30 19:24 40.61105 -73.93981 14033 ft 301 kts 167°
2026-04-30 19:24 40.59155 -73.93048 13600 ft 294 kts 167°
2026-04-30 19:24 40.55303 -73.91212 12439 ft 292 kts 167°
2026-04-30 19:25 40.49551 -73.88533 10782 ft 291 kts 167°
2026-04-30 19:26 40.45815 -73.86587 9989 ft 295 kts 148°
2026-04-30 19:26 40.43863 -73.81849 9251 ft 309 kts 94°
2026-04-30 19:26 40.44053 -73.79054 8967 ft 307 kts 81°
2026-04-30 19:27 40.45405 -73.73859 8201 ft 303 kts 49°
2026-04-30 19:27 40.48928 -73.71056 8010 ft 300 kts 19°
2026-04-30 19:28 40.50868 -73.70091 8003 ft 297 kts 18°
2026-04-30 19:28 40.54721 -73.68241 7996 ft 294 kts 17°
2026-04-30 19:29 40.58551 -73.66420 7999 ft 292 kts 18°
2026-04-30 19:29 40.60352 -73.65222 7970 ft 291 kts 32°
2026-04-30 19:30 40.65128 -73.60340 6549 ft 287 kts 37°
2026-04-30 19:30 40.68208 -73.57078 5486 ft 279 kts 37°
2026-04-30 19:31 40.71200 -73.53898 4412 ft 273 kts 37°
2026-04-30 19:31 40.72669 -73.52338 3873 ft 269 kts 37°
2026-04-30 19:31 40.75439 -73.49344 2971 ft 248 kts 36°
2026-04-30 19:32 40.76785 -73.47967 2587 ft 241 kts 37°
2026-04-30 19:32 40.78196 -73.46863 2150 ft 234 kts 13°
2026-04-30 19:32 40.79807 -73.46881 2034 ft 232 kts 342°
2026-04-30 19:32 40.81301 -73.47625 1996 ft 228 kts 337°
2026-04-30 19:33 40.82765 -73.48393 1987 ft 225 kts 337°
2026-04-30 19:33 40.84211 -73.49148 1982 ft 222 kts 337°
2026-04-30 19:33 40.85651 -73.49903 1985 ft 223 kts 337°
2026-04-30 19:33 40.87098 -73.50666 1995 ft 225 kts 337°
2026-04-30 19:34 40.88539 -73.51426 1982 ft 220 kts 337°
2026-04-30 19:34 40.89934 -73.52162 1975 ft 214 kts 337°
2026-04-30 19:34 40.92688 -73.53616 1986 ft 214 kts 337°
2026-04-30 19:35 40.94053 -73.54339 1989 ft 214 kts 337°
2026-04-30 19:35 40.95458 -73.55086 1988 ft 215 kts 337°
2026-04-30 19:35 40.96828 -73.55820 1990 ft 215 kts 337°
2026-04-30 19:35 40.98216 -73.56567 1988 ft 215 kts 337°
2026-04-30 19:36 40.99593 -73.57326 1974 ft 212 kts 332°
2026-04-30 19:36 41.00655 -73.58601 1972 ft 207 kts 297°
2026-04-30 19:36 41.00336 -73.62313 1992 ft 232 kts 230°
2026-04-30 19:37 40.99005 -73.63533 1980 ft 238 kts 199°
2026-04-30 19:37 40.97384 -73.63928 1986 ft 239 kts 188°
2026-04-30 19:37 40.95722 -73.64189 1980 ft 242 kts 187°
2026-04-30 19:37 40.94043 -73.64451 1977 ft 244 kts 187°
2026-04-30 19:38 40.92357 -73.64710 1978 ft 244 kts 187°
2026-04-30 19:38 40.90654 -73.64968 1976 ft 242 kts 187°
2026-04-30 19:38 40.88984 -73.65215 1976 ft 240 kts 187°
2026-04-30 19:38 40.87370 -73.65457 1960 ft 232 kts 187°
2026-04-30 19:39 40.85808 -73.65691 1961 ft 220 kts 187°
2026-04-30 19:39 40.84302 -73.65914 1972 ft 217 kts 187°
2026-04-30 19:39 40.82803 -73.66134 1979 ft 217 kts 187°
2026-04-30 19:39 40.81300 -73.66354 1988 ft 217 kts 187°
2026-04-30 19:40 40.79819 -73.66570 1980 ft 209 kts 187°
2026-04-30 19:40 40.78427 -73.66764 1962 ft 193 kts 187°
2026-04-30 19:40 40.77108 -73.66947 2008 ft 189 kts 186°
2026-04-30 19:40 40.75838 -73.67139 2002 ft 176 kts 190°
2026-04-30 19:41 40.74743 -73.67655 1990 ft 162 kts 208°
2026-04-30 19:41 40.73739 -73.68311 2002 ft 157 kts 209°
2026-04-30 19:41 40.72814 -73.68989 1895 ft 149 kts 211°
2026-04-30 19:41 40.71938 -73.69669 1699 ft 143 kts 212°
2026-04-30 19:42 40.71086 -73.70339 1516 ft 143 kts 212°
2026-04-30 19:42 40.70240 -73.71032 1330 ft 142 kts 214°
2026-04-30 19:42 40.69386 -73.71685 1148 ft 142 kts 210°
2026-04-30 19:42 40.68543 -73.72350 950 ft 141 kts 210°
2026-04-30 19:43 40.67696 -73.72991 740 ft 141 kts 211°
2026-04-30 19:43 40.66856 -73.73665 580 ft 142 kts 211°
2026-04-30 19:43 40.66006 -73.74331 407 ft 140 kts 211°
2026-04-30 19:44 40.64335 -73.75634 49 ft 136 kts 211°
2026-04-30 19:44 40.63596 -73.76214 27 ft 103 kts 211°
2026-04-30 19:44 40.63150 -73.76562 30 ft 52 kts 211°
2026-04-30 19:44 40.62994 -73.76748 30 ft 25 kts 235°
2026-04-30 19:45 40.62927 -73.76915 29 ft 18 kts 261°
2026-04-30 19:45 40.62944 -73.77001 26 ft 0 kts 298°
2026-04-30 19:45 40.62945 -73.77002 26 ft 0 kts 298°
2026-04-30 19:45 40.62946 -73.77005 26 ft 1 kts 298°
2026-04-30 19:46 40.62954 -73.77024 27 ft 9 kts 299°
2026-04-30 19:46 40.63030 -73.77192 31 ft 23 kts 301°
2026-04-30 19:46 40.63104 -73.77356 32 ft 20 kts 301°
2026-04-30 19:46 40.63177 -73.77515 35 ft 21 kts 301°
2026-04-30 19:47 40.63254 -73.77687 32 ft 22 kts 301°
2026-04-30 19:47 40.63305 -73.77801 32 ft 22 kts 301°
2026-04-30 19:47 40.63406 -73.78033 28 ft 23 kts 300°
2026-04-30 19:47 40.63486 -73.78211 29 ft 23 kts 301°
2026-04-30 19:48 40.63567 -73.78388 33 ft 23 kts 301°
2026-04-30 19:48 40.63647 -73.78566 33 ft 23 kts 301°
2026-04-30 19:48 40.63728 -73.78744 34 ft 23 kts 301°
2026-04-30 19:48 40.63812 -73.78929 29 ft 25 kts 301°
2026-04-30 19:49 40.63900 -73.79124 27 ft 23 kts 301°
2026-04-30 19:49 40.64059 -73.79466 27 ft 19 kts 310°
2026-04-30 19:49 40.64200 -73.79504 29 ft 28 kts
2026-04-30 19:50 40.64345 -73.79492 29 ft 17 kts
2026-04-30 19:50 40.64465 -73.79498 29 ft 17 kts 355°
2026-04-30 19:50 40.64585 -73.79519 28 ft 17 kts 343°
2026-04-30 19:50 40.64680 -73.79597 28 ft 8 kts 325°
2026-04-30 19:51 40.64731 -73.79622 28 ft 12 kts 14°
2026-04-30 19:51 40.64784 -73.79531 28 ft 10 kts 60°
2026-04-30 19:51 40.64801 -73.79474 28 ft 7 kts 96°
2026-04-30 19:51 40.64771 -73.79434 28 ft 6 kts 147°
2026-04-30 19:52 40.64756 -73.79422 28 ft 3 kts 149°
2026-04-30 19:52 40.64750 -73.79417 28 ft 0 kts 149°